Regional Weather Roundup
Issued by NWS

Home | Current Version | Previous Version | Text Only | Print | Product List | Glossary On
Versions: 1 2 3 4 5 6 7 8 9 10 11 12 13 14 15 16 17 18 19 20 21 22 23 24 25 26 27 28 29 30 31 32 33 34 35 36 37 38 39 40 41 42 43 44 45 46 47 48 49 50
000
ASCA42 TJSJ 181211
RWRPR
PUERTO RICO/U.S. VIRGIN ISLANDS HOURLY WEATHER ROUNDUP
NATIONAL WEATHER SERVICE SAN JUAN PR
800 AM AST THU SEP 18 2014

PRZ001-004-181300-
PUERTO RICO

CITY           SKY/WX    TMP DP  RH WIND       PRES   REMARKS
SAN JUAN LMM   MOSUNNY   82  79  89 CALM      29.98R HX  93
PONCE          MOSUNNY   84  72  65 CALM      29.93R
MAYAGUEZ       MOSUNNY   79  70  73 E9        29.97R
AGUADILLA      SUNNY     79  73  83 E5        29.98R
CEIBA          MOSUNNY   82  75  78 N6        30.00R
$$

PRZ006-007-181300-
U.S. VIRGIN ISLANDS

CITY           SKY/WX    TMP DP  RH WIND       PRES   REMARKS
$$

HOURLY WEATHER ROUNDUP FOR THE NEWS MEDIA

CITY           SKY/WX    TMP DP  RH WIND       PRES   REMARKS
MIAMI          PTSUNNY   79  71  76 CALM      29.93R
ORLANDO        CLEAR     76  73  91 CALM      29.92R
NEW YORK       MOSUNNY   63  53  70 NW6       30.01R
NEWARK         MOSUNNY   60  54  80 CALM      30.01R
CHICAGO        MOCLDY    54  51  90 N9        30.10R FOG
HARTFORD       SUNNY     50  48  93 CALM      29.97R
BOSTON         MOSUNNY   58  46  64 W8        29.97R
DALLAS         CLOUDY    76  72  87 S7        29.86F
PHILADELPHIA   MOSUNNY   60  51  72 N5        30.01S


USA.gov is the U.S. government's official web portal to all federal, state and local government web resources and services.